Wind_Speed
5 6 6 6 5 5 6 5 5 4 4 3 4 4 5 4 5 5 5 5 5 5 6 6 5 6 6 6 5 5 5 5 5 5 5 4 4 4 4 4 4 4 3
4 5 5 5 4 4 5 5 5 5 5 5 4 5 5 5 6 6 7 7 7 7 7 7 7 7 7 7 7 7 7 7 6 6 6 6 6 6 6 6 6 5 5
3 3 3 4 4 4 4 4 5 5 5 5 6 7 7 7 7 8 7 7 8 8 8 9 9 9 9 9 9 8 8 8 7 8 7 7 7 7 7 7 7 6 6
3 3 2 3 3 4 4 4 4 5 5 6 6 7 8 8 8 9 8 8 9 9 9 10 10 10 10 10 10 10 10 9 9 9 9 8 8 9 8 8 8 8 7
2 2 2 2 3 4 4 4 5 5 6 7 7 7 8 8 8 8 8 8 9 10 10 10 10 10 10 11 11 11 11 11 11 11 11 10 10 10 10 10 9 9 9
1 2 2 3 3 4 4 5 6 7 7 7 8 8 8 8 8 8 8 9 9 10 10 11 11 11 11 11 12 12 13 13 12 12 13 12 12 12 11 11 11 11 11
1 1 1 2 3 4 5 6 7 8 9 9 10 10 10 10 10 9 10 11 11 11 10 11 11 12 12 13 13 13 14 14 14 14 14 13 13 13 12 12 12 12 12
1 2 2 3 4 5 5 6 7 8 9 9 10 11 11 11 11 11 11 11 11 11 11 12 12 13 13 13 13 14 15 15 15 14 15 14 14 14 14 14 14 13 14
2 3 4 4 5 5 5 7 7 8 8 9 10 10 11 11 12 12 12 12 12 12 12 12 13 13 13 13 13 14 14 13 14 14 14 14 14 14 15 16 16 16 16
3 4 5 5 5 6 7 8 8 9 9 9 10 10 11 12 12 13 13 13 13 13 13 13 13 13 13 14 14 14 15 15 15 15 15 15 16 16 17 17 18 18 17
5 5 5 5 6 7 8 8 9 9 10 10 10 11 11 12 12 13 13 13 13 13 13 14 14 14 15 15 15 16 16 16 16 16 17 17 17 17 17 18 18 18 18
6 6 7 7 7 8 8 9 9 10 10 11 11 11 12 13 12 13 13 14 14 14 14 15 16 16 17 17 16 16 17 16 17 17 17 18 18 18 18 19 19 19 19
7 7 8 8 8 9 9 9 10 11 11 12 12 12 13 13 13 13 14 14 14 15 15 16 17 17 18 17 17 18 18 18 18 18 18 19 19 19 19 20 20 20 21
9 9 9 10 10 11 11 11 11 12 12 13 14 14 14 15 15 15 15 15 15 16 16 17 17 18 18 18 19 19 19 19 19 20 20 20 20 20 21 21 22 22 22
10 10 11 12 12 12 13 13 14 14 14 15 15 16 16 16 16 17 17 17 18 18 19 20 20 20 20 20 20 21 20 20 21 20 21 21 21 21 21 22 23 23 23
13 13 13 14 14 15 14 15 16 16 16 17 17 18 18 18 18 18 19 19 20 20 21 21 22 22 22 22 22 22 22 22 22 23 22 22 22 23 23 23 24 24 24
15 15 15 16 16 17 17 17 18 18 18 18 19 20 20 20 20 21 21 22 22 22 22 22 23 23 23 23 24 24 23 23 24 24 24 23 23 24 25 25 26 26 26
18 18 18 18 19 19 19 20 20 20 20 21 21 21 21 21 21 22 22 23 23 23 23 23 24 25 25 25 25 25 26 26 26 25 26 26 26 26 27 27 27 27 27
19 20 20 21 21 20 21 22 22 22 22 23 23 23 22 23 23 23 23 23 23 24 24 25 25 26 27 27 27 27 27 28 28 27 27 27 28 28 28 28 28 28 28
21 21 22 22 22 22 22 24 24 24 24 24 25 25 26 26 26 26 25 25 25 25 25 26 26 27 27 27 28 28 29 28 29 28 28 28 29 29 29 29 28 29 29
23 23 24 24 24 25 24 25 26 26 25 26 26 27 27 26 27 27 27 26 26 27 27 27 27 28 28 29 29 30 30 29 29 29 28 29 29 30 29 29 29 29 30
25 26 26 27 26 25 25 26 27 27 27 27 28 28 28 28 28 28 28 28 28 28 28 28 29 29 30 30 30 31 30 30 30 30 29 29 29 29 29 29 29 29 30
28 28 28 28 27 27 27 28 28 28 28 28 29 29 29 29 29 30 30 30 30 30 31 31 31 31 31 31 31 31 31 30 31 31 31 30 30 29 29 29 30 30 30
30 30 30 30 29 28 28 29 29 29 30 30 30 30 31 31 31 31 31 31 31 32 32 32 32 32 33 32 32 32 32 32 31 32 31 31 31 31 31 30 30 30 29
32 31 31 31 31 30 31 31 31 31 31 31 32 32 32 32 32 32 32 33 33 32 32 33 33 33 33 33 32 33 33 33 32 32 32 32 32 32 32 31 31 31 30
33 32 33 32 32 32 33 32 32 32 32 32 33 33 33 33 33 34 34 34 33 33 34 34 34 33 34 34 34 34 34 33 33 33 33 33 33 32 32 32 32 31 31
Wind_Direction
144 153 164 171 174 181 186 190 192 198 213 227 237 241 245 248 250 253 253 246 243 247 253 257 259 262 269 266 273 272 272 276 278 280 286 285 285 293 296 295 297 306 309
142 145 161 174 185 194 200 207 211 220 229 240 251 256 257 258 259 259 256 248 249 251 256 261 261 264 267 271 271 275 275 277 279 281 282 281 283 289 290 292 291 291 293
153 159 167 184 200 213 216 221 227 236 241 250 260 267 266 269 268 266 259 255 256 256 260 259 261 266 269 270 271 273 276 274 279 279 276 278 282 285 286 287 288 286 290
168 182 191 202 216 223 225 230 239 247 252 260 267 272 271 269 271 267 265 261 260 261 262 263 264 267 268 270 271 272 275 275 277 274 272 276 280 280 281 284 284 284 285
193 211 224 228 232 233 240 250 259 256 260 264 268 274 275 271 271 269 272 268 267 266 263 264 264 269 270 271 271 271 273 277 276 272 269 270 274 277 275 277 280 281 281
241 236 246 252 252 250 255 260 266 264 264 267 273 276 277 273 270 274 277 277 277 272 270 268 265 266 271 273 271 270 271 274 276 275 270 267 269 272 274 275 277 279 279
310 280 270 278 272 266 269 267 268 268 267 271 275 277 279 278 277 278 277 279 279 278 277 276 271 268 272 273 272 270 270 272 274 275 273 268 267 270 271 273 276 275 276
291 284 294 291 287 285 280 279 277 276 273 273 276 277 278 279 278 281 283 282 280 280 278 276 274 274 276 275 274 272 272 273 275 274 275 272 270 270 271 272 273 273 275
283 278 290 297 297 302 301 297 293 289 286 280 278 279 282 280 280 281 281 282 282 283 281 279 278 278 279 277 277 277 276 276 275 277 276 275 276 276 275 275 274 274 275
322 308 301 306 306 306 305 301 300 297 290 284 282 284 282 280 280 280 281 282 282 281 280 281 279 280 279 278 277 277 276 278 277 279 279 277 279 279 278 276 276 276 276
315 314 310 309 305 303 302 300 300 300 296 292 290 288 287 284 281 281 281 280 280 281 282 283 282 281 282 281 280 277 276 276 276 278 277 277 279 280 280 278 279 278 278
311 308 309 308 309 305 303 302 300 298 298 295 292 290 288 286 284 284 283 278 277 279 281 283 283 282 283 283 282 280 277 276 275 277 278 277 278 278 279 278 280 278 278
304 304 306 308 305 304 302 301 299 296 295 294 294 293 292 291 287 289 289 282 278 279 279 281 283 283 283 283 283 282 280 278 276 275 276 278 279 278 279 277 278 276 275
298 296 299 301 302 300 298 299 300 301 300 298 297 296 295 291 289 286 285 285 284 283 282 281 284 283 285 286 285 285 284 281 280 278 276 277 277 277 278 279 278 277 275
297 296 300 300 301 299 297 294 295 296 298 299 299 298 294 291 288 286 285 285 284 283 284 283 284 286 286 286 286 285 283 281 281 279 278 277 278 278 278 279 278 277 276
294 297 301 301 303 301 297 297 296 295 295 296 296 297 295 291 289 287 287 287 284 282 282 283 284 284 284 284 285 285 284 282 281 279 278 279 280 279 278 279 279 278 277
290 294 296 297 299 298 298 298 297 295 296 297 297 297 295 292 289 288 287 286 285 282 282 282 282 282 284 283 283 283 282 281 281 279 277 278 279 280 278 279 279 278 277
286 288 291 294 296 296 295 297 298 295 295 295 295 296 294 293 291 291 290 287 285 283 282 283 282 283 283 284 283 282 281 281 281 279 278 278 277 278 278 280 280 278 276
282 286 289 291 292 292 292 294 295 295 294 293 293 293 292 291 290 288 288 288 286 284 282 283 284 284 284 284 284 283 282 281 281 279 278 278 278 278 279 279 280 279 276
280 284 288 289 290 290 290 291 292 293 291 291 291 291 290 289 287 285 286 285 284 285 284 285 285 286 287 287 286 285 283 283 282 280 278 278 279 279 279 279 279 279 278
280 283 285 287 289 289 289 290 290 290 289 288 289 290 291 291 288 286 285 283 283 283 284 284 285 286 286 286 286 285 283 282 281 280 279 279 280 280 279 278 278 278 278
281 282 284 286 287 287 289 289 289 289 289 289 289 290 289 289 289 286 284 282 281 281 283 285 286 285 285 285 284 283 281 281 279 279 280 280 282 282 280 279 278 278 278
282 283 283 282 283 285 288 289 288 287 288 289 290 290 289 289 288 287 284 283 282 281 282 283 285 285 285 284 284 282 281 281 280 280 280 281 282 282 280 279 279 280 279
281 282 282 281 282 283 285 287 288 287 288 290 290 289 289 289 287 285 284 284 284 282 281 281 283 283 283 284 283 283 281 280 281 283 283 282 281 281 279 278 278 279 280
278 280 280 280 281 283 285 286 287 287 288 290 290 290 290 288 286 284 283 284 284 284 283 282 282 282 282 281 282 283 282 283 283 283 284 284 282 280 279 278 277 278 279
275 277 278 279 281 282 283 285 286 287 288 288 289 290 289 286 285 284 284 285 284 284 285 285 283 282 282 280 280 281 281 281 281 282 283 283 281 280 278 277 276 277 278
Height
5900 5901 5902 5903 5903 5903 5904 5905 5906 5907 5907 5907 5908 5908 5908 5907 5908 5908 5908 5908 5908 5908 5908 5908 5908 5908 5908 5908 5908 5907 5907 5907 5907 5907 5907 5906 5906 5906 5906 5905 5905 5904 5904
5901 5902 5903 5903 5904 5904 5905 5906 5906 5907 5907 5907 5907 5907 5907 5907 5907 5907 5907 5907 5907 5907 5907 5907 5907 5907 5907 5906 5906 5906 5906 5906 5906 5905 5905 5905 5905 5905 5905 5904 5904 5903 5903
5902 5903 5903 5903 5904 5904 5905 5905 5906 5906 5906 5906 5906 5906 5906 5906 5906 5905 5905 5905 5905 5906 5906 5906 5906 5905 5905 5905 5905 5905 5904 5904 5904 5904 5904 5904 5904 5903 5903 5903 5902 5902 5902
5902 5903 5903 5904 5904 5904 5904 5905 5905 5905 5905 5905 5905 5905 5905 5905 5904 5904 5904 5904 5904 5904 5904 5904 5904 5904 5903 5903 5903 5903 5902 5902 5902 5902 5902 5902 5902 5902 5901 5901 5901 5901 5900
5903 5903 5903 5904 5904 5904 5904 5904 5904 5904 5904 5904 5904 5904 5904 5903 5903 5903 5902 5902 5902 5902 5902 5901 5901 5901 5901 5901 5901 5900 5900 5900 5900 5900 5899 5899 5899 5899 5899 5899 5899 5899 5898
5903 5903 5903 5903 5903 5903 5903 5903 5903 5903 5903 5903 5902 5902 5902 5901 5901 5901 5901 5900 5900 5900 5899 5899 5899 5899 5899 5899 5898 5898 5898 5897 5897 5897 5897 5897 5897 5896 5896 5896 5896 5896 5896
5903 5903 5903 5903 5902 5902 5902 5902 5902 5902 5902 5901 5901 5900 5900 5900 5899 5899 5899 5899 5898 5898 5897 5897 5897 5896 5896 5896 5896 5896 5895 5895 5895 5894 5894 5894 5894 5894 5894 5894 5893 5893 5893
5903 5903 5903 5902 5902 5902 5901 5901 5901 5900 5900 5899 5899 5898 5898 5898 5897 5897 5897 5896 5896 5896 5895 5895 5894 5894 5894 5893 5893 5893 5892 5892 5891 5891 5891 5891 5891 5891 5891 5891 5890 5890 5890
5902 5902 5902 5901 5901 5900 5900 5900 5899 5898 5898 5897 5897 5896 5896 5896 5895 5895 5894 5894 5894 5893 5893 5892 5892 5891 5890 5890 5890 5889 5889 5889 5888 5888 5888 5888 5888 5887 5887 5887 5887 5886 5886
5902 5901 5901 5900 5900 5899 5899 5898 5897 5897 5896 5896 5895 5894 5894 5893 5893 5892 5892 5891 5891 5890 5890 5889 5889 5888 5887 5887 5887 5886 5886 5886 5885 5885 5885 5884 5884 5884 5883 5883 5883 5882 5882
5901 5901 5900 5899 5898 5898 5897 5896 5896 5895 5894 5893 5893 5892 5891 5890 5890 5889 5889 5888 5888 5887 5887 5886 5886 5885 5884 5883 5883 5883 5882 5882 5881 5881 5881 5880 5880 5880 5879 5879 5878 5877 5877
5900 5899 5899 5898 5897 5896 5895 5895 5894 5893 5892 5891 5890 5889 5888 5888 5887 5886 5886 5885 5885 5884 5884 5883 5882 5882 5881 5880 5879 5879 5878 5878 5877 5877 5877 5876 5876 5875 5875 5874 5874 5873 5872
5899 5898 5897 5896 5895 5894 5894 5893 5892 5891 5890 5889 5887 5887 5886 5885 5884 5883 5882 5882 5881 5881 5880 5880 5879 5878 5877 5876 5875 5875 5874 5874 5873 5873 5872 5872 5871 5871 5870 5869 5869 5868 5868
5897 5896 5895 5894 5893 5892 5891 5890 5889 5888 5887 5886 5885 5884 5883 5882 5880 5880 5879 5878 5877 5877 5876 5876 5875 5874 5873 5872 5871 5870 5869 5869 5868 5868 5867 5867 5866 5866 5865 5864 5863 5863 5862
5894 5893 5892 5891 5890 5889 5888 5887 5886 5885 5884 5883 5881 5880 5879 5878 5877 5876 5875 5874 5874 5873 5872 5871 5870 5869 5868 5867 5866 5865 5865 5864 5863 5863 5862 5861 5861 5860 5859 5858 5858 5857 5856
5892 5890 5889 5888 5887 5886 5885 5884 5883 5881 5880 5879 5878 5876 5874 5873 5872 5871 5870 5869 5868 5868 5867 5866 5865 5864 5863 5862 5861 5860 5859 5858 5858 5857 5856 5856 5855 5854 5853 5852 5851 5850 5850
5888 5887 5886 5885 5884 5882 5881 5880 5879 5877 5876 5874 5873 5871 5870 5868 5867 5866 5865 5864 5863 5862 5861 5861 5859 5858 5857 5856 5855 5854 5853 5852 5851 5851 5850 5849 5848 5847 5846 5845 5845 5844 5843
5884 5883 5882 5881 5879 5878 5877 5875 5874 5872 5871 5869 5868 5866 5865 5863 5862 5860 5859 5858 5857 5856 5856 5855 5853 5852 5851 5850 5849 5848 5847 5846 5845 5844 5843 5842 5841 5841 5839 5838 5837 5836 5836
5879 5878 5877 5876 5874 5873 5872 5871 5869 5867 5866 5864 5862 5861 5859 5857 5856 5854 5853 5851 5851 5850 5849 5848 5847 5846 5844 5843 5842 5841 5840 5839 5837 5836 5836 5835 5834 5833 5832 5831 5830 5829 5828
5874 5873 5872 5870 5869 5867 5866 5865 5864 5862 5860 5858 5856 5854 5852 5851 5849 5847 5846 5845 5844 5843 5842 5841 5840 5838 5837 5836 5835 5834 5832 5831 5830 5829 5828 5827 5826 5825 5824 5823 5822 5821 5820
5868 5867 5866 5865 5863 5861 5860 5858 5857 5855 5853 5852 5850 5848 5845 5843 5842 5840 5839 5838 5836 5835 5834 5833 5832 5831 5830 5828 5827 5826 5824 5823 5822 5821 5820 5819 5818 5816 5815 5814 5813 5813 5812
5862 5861 5859 5858 5857 5855 5853 5851 5850 5848 5846 5844 5842 5840 5838 5836 5834 5832 5831 5830 5829 5828 5826 5825 5824 5823 5822 5820 5819 5817 5816 5815 5814 5814 5811 5810 5809 5808 5806 5805 5805 5804 5803
5854 5853 5852 5851 5850 5848 5846 5845 5842 5840 5838 5837 5834 5832 5830 5828 5826 5824 5823 5822 5820 5819 5818 5817 5816 5815 5813 5812 5810 5809 5807 5806 5806 5804 5803 5802 5800 5799 5798 5797 5796 5795 5794
5846 5845 5844 5843 5842 5840 5839 5837 5835 5832 5830 5828 5826 5823 5821 5820 5818 5816 5815 5813 5812 5811 5809 5808 5807 5806 5805 5803 5802 5800 5799 5798 5797 5795 5794 5793 5792 5790 5789 5788 5788 5787 5785
5837 5836 5836 5834 5833 5832 5830 5828 5826 5824 5822 5820 5817 5815 5813 5811 5809 5808 5806 5804 5803 5801 5800 5799 5797 5796 5795 5794 5793 5791 5790 5789 5788 5786 5785 5784 5783 5781 5780 5779 5778 5778 5777
5828 5827 5827 5825 5824 5823 5821 5819 5817 5815 5813 5811 5809 5806 5804 5802 5800 5798 5797 5795 5793 5792 5790 5789 5788 5786 5785 5784 5783 5782 5781 5780 5779 5778 5776 5775 5773 5772 5771 5770 5769 5768 5767